KPTN

Details ICAO KPTN
Name HARRY P WILLIAMS MEM
Region United States
Timezone America/Chicago (UTC-5.0)
Plans Departing 2
Arriving 3
Stats Elevation 8 ft / 2 m (AMSL)
Location 29.710819° -91.339713°
Runways 1
Magnetic Variation 0.058° W
Sunrise 2018-05-21 11:10:40 UTC / 2018-05-21 06:10:40 Local
Sunset 2018-05-22 00:56:07 UTC / 2018-05-21 19:56:07 Local
Advertisement - Login to hide

Runways

ID Width Length Bearing (true) Bearing (mag) Surface Threshold Offset Overrun Length
06 150 ft / 46 m 5,397 ft / 1,645 m 58.97° 59.03° Asphalt 394 ft / 120 m 0 ft / 0 m
24 150 ft / 46 m 5,397 ft / 1,645 m 238.98° 239.04° Asphalt 0 ft / 0 m 0 ft / 0 m

Approach Navaids

Runway Type Ident Frequency Range Bearing (true) Bearing (mag) Slope Elevation
24 Localiser IPTN 108.30 MHz 18 nm / 33 km 238.97° 239.02° - 8 ft / 2 m (AMSL)
24 Glidescope IPTN 108.30 MHz 10 nm / 19 km 238.97° 239.03° 3.00° 9 ft / 3 m (AMSL)
24 DME IPTN 108.30 MHz 18 nm / 33 km - - - 23 ft / 7 m (AMSL)

Map

Weather


0- 5 10 15 20 25 30 35+ Temperature / ° C

Clouds and Precipitation
Forecast for 2018-05-21 18:00 UTC. Updated 31 minutes ago

Ground ~20,000 ft ~40,000 ft Winds

METAR

KPTN 211656Z AUTO 10006KT 10SM BKN040 BKN047 BKN070 30/22 A3003 RMK AO2 SLP168 T03000217

TAF

Not found

Frequencies

Recorded 134.57 MHz AWOS 3
Approach 124.30 MHz NEW ORLEANS APP/DEP
Unicom 122.80 MHz CTAF/UNICOM
Warning: Do not use this data for real-world aviation or navigation. No guarantee of current accuracy is given.